linux/drivers/watchdog/
<<
>>
Prefs
Kconfig 63931 2023-08-11 09:45:41
Makefile 8090 2023-08-11 09:45:41
acquirewdt.c 8692 2023-08-11 09:45:41
advantechwdt.c 7991 2023-08-11 09:45:41
alim1535_wdt.c 10143 2023-08-11 09:45:41
alim7101_wdt.c 11174 2023-08-11 09:45:41
ar7_wdt.c 7202 2023-08-11 09:45:41
asm9260_wdt.c 9069 2023-08-11 09:45:41
aspeed_wdt.c 9904 2023-08-11 09:45:41
at91rm9200_wdt.c 7849 2023-08-11 09:45:41
at91sam9_wdt.c 10747 2023-08-11 09:45:41
at91sam9_wdt.h 1318 2023-08-11 09:45:41
ath79_wdt.c 7593 2023-08-11 09:45:41
atlas7_wdt.c 5981 2023-08-11 09:45:41
bcm2835_wdt.c 6952 2023-08-11 09:45:41
bcm47xx_wdt.c 5890 2021-08-29 15:04:50 -0700
bcm63xx_wdt.c 6921 2023-08-11 09:45:41
bcm7038_wdt.c 5439 2023-08-11 09:45:41
bcm_kona_wdt.c 9220 2023-08-11 09:45:41
booke_wdt.c 5993 2023-08-11 09:45:41
cadence_wdt.c 12863 2023-08-11 09:45:41
coh901327_wdt.c 12246 2023-08-11 09:45:41
cpu5wdt.c 6807 2023-08-11 09:45:41
cpwd.c 16142 2023-08-11 09:45:41
da9052_wdt.c 4833 2023-08-11 09:45:41
da9055_wdt.c 4142 2023-08-11 09:45:41
da9062_wdt.c 5699 2023-08-11 09:45:41
da9063_wdt.c 6215 2023-08-11 09:45:41
davinci_wdt.c 8002 2023-08-11 09:45:41
diag288_wdt.c 7909 2023-08-11 09:45:41
digicolor_wdt.c 4050 2023-08-11 09:45:41
dw_wdt.c 8969 2023-08-11 09:45:41
ebc-c384_wdt.c 4118 2023-08-11 09:45:41
ep93xx_wdt.c 3773 2023-08-11 09:45:41
eurotechwdt.c 10955 2023-08-11 09:45:41
f71808e_wdt.c 22635 2023-08-11 09:45:41
ftwdt010_wdt.c 5661 2023-08-11 09:45:41
gef_wdt.c 7672 2023-08-11 09:45:41
geodewdt.c 6603 2023-08-11 09:45:41
gpio_wdt.c 4681 2023-08-11 09:45:41
hpwdt.c 8922 2023-08-11 09:45:41
i6300esb.c 10647 2023-08-11 09:45:41
iTCO_vendor.h 719 2023-08-11 09:45:41
iTCO_vendor_support.c 11089 2023-08-11 09:45:41
iTCO_wdt.c 18045 2023-08-11 09:45:41
ib700wdt.c 8527 2023-08-11 09:45:41
ibmasr.c 9628 2023-08-11 09:45:41
ie6xx_wdt.c 8769 2023-08-11 09:45:41
imgpdc_wdt.c 9643 2023-08-11 09:45:41
imx2_wdt.c 12161 2023-08-11 09:45:41
indydog.c 4703 2023-08-11 09:45:41
intel-mid_wdt.c 4670 2023-08-11 09:45:41
intel_scu_watchdog.c 15396 2023-08-11 09:45:41
intel_scu_watchdog.h 2053 2023-08-11 09:45:41
iop_wdt.c 6030 2023-08-11 09:45:41
it8712f_wdt.c 10199 2023-08-11 09:45:41
it87_wdt.c 7893 2023-08-11 09:45:41
ixp4xx_wdt.c 4680 2023-08-11 09:45:41
jz4740_wdt.c 6249 2023-08-11 09:45:41
kempld_wdt.c 14832 2023-08-11 09:45:41
ks8695_wdt.c 7838 2023-08-11 09:45:41
lantiq_wdt.c 7513 2023-08-11 09:45:41
loongson1_wdt.c 4114 2023-08-11 09:45:41
lpc18xx_wdt.c 9336 2023-08-11 09:45:41
m54xx_wdt.c 5130 2023-08-11 09:45:41
machzwd.c 10062 2023-08-11 09:45:41
max63xx_wdt.c 7189 2023-08-11 09:45:41
max77620_wdt.c 5566 2023-08-11 09:45:41
mei_wdt.c 15254 2023-08-11 09:45:41
mena21_wdt.c 5269 2023-08-11 09:45:41
menf21bmc_wdt.c 5492 2023-08-11 09:45:41
menz69_wdt.c 4014 2023-08-11 09:45:41
meson_gxbb_wdt.c 5697 2023-08-11 09:45:41
meson_wdt.c 6305 2023-08-11 09:45:41
mixcomwd.c 7442 2023-08-11 09:45:41
moxart_wdt.c 4601 2023-08-11 09:45:41
mpc8xxx_wdt.c 7017 2023-08-11 09:45:41
mt7621_wdt.c 4847 2023-08-11 09:45:41
mtk_wdt.c 6377 2023-08-11 09:45:41
mtx-1_wdt.c 5950 2023-08-11 09:45:41
mv64x60_wdt.c 7825 2023-08-11 09:45:41
ni903x_wdt.c 6899 2023-08-11 09:45:41
nic7018_wdt.c 6339 2023-08-11 09:45:41
npcm_wdt.c 5868 2023-08-11 09:45:41
nuc900_wdt.c 7317 2023-08-11 09:45:41
nv_tco.c 12493 2023-08-11 09:45:41
nv_tco.h 2062 2023-08-11 09:45:41
octeon-wdt-main.c 16868 2023-08-11 09:45:41
octeon-wdt-nmi.S 2042 2021-08-29 15:04:50 -0700
of_xilinx_wdt.c 7887 2023-08-11 09:45:41
omap_wdt.c 9907 2023-08-11 09:45:41
omap_wdt.h 2300 2023-08-11 09:45:41
orion_wdt.c 17051 2023-08-11 09:45:41
pc87413_wdt.c 14375 2023-08-11 09:45:41
pcwd.c 26534 2023-08-11 09:45:41
pcwd_pci.c 20386 2023-08-11 09:45:41
pcwd_usb.c 21684 2023-08-11 09:45:41
pic32-dmt.c 5743 2023-08-11 09:45:41
pic32-wdt.c 6240 2023-08-11 09:45:41
pika_wdt.c 6901 2023-08-11 09:45:41
pnx4008_wdt.c 7247 2023-08-11 09:45:41
pnx833x_wdt.c 7250 2023-08-11 09:45:41
pretimeout_noop.c 1270 2023-08-11 09:45:41
pretimeout_panic.c 1252 2023-08-11 09:45:41
qcom-wdt.c 6550 2023-08-11 09:45:41
rave-sp-wdt.c 8344 2023-08-11 09:45:41
rc32434_wdt.c 8324 2023-08-11 09:45:41
rdc321x_wdt.c 7332 2023-08-11 09:45:41
renesas_wdt.c 7997 2023-08-11 09:45:41
retu_wdt.c 4630 2023-08-11 09:45:41
riowd.c 5716 2023-08-11 09:45:41
rn5t618_wdt.c 5337 2023-08-11 09:45:41
rt2880_wdt.c 5096 2023-08-11 09:45:41
rtd119x_wdt.c 4006 2023-08-11 09:45:41
rza_wdt.c 4909 2023-08-11 09:45:41
s3c2410_wdt.c 19667 2023-08-11 09:45:41
sa1100_wdt.c 5234 2023-08-11 09:45:41
sama5d4_wdt.c 7836 2023-08-11 09:45:41
sb_wdog.c 8737 2023-08-11 09:45:41
sbc60xxwdt.c 10364 2023-08-11 09:45:41
sbc7240_wdt.c 7049 2023-08-11 09:45:41
sbc8360.c 10039 2023-08-11 09:45:41
sbc_epx_c3.c 5119 2023-08-11 09:45:41
sbc_fitpc2_wdt.c 5377 2023-08-11 09:45:41
sbsa_gwdt.c 11384 2023-08-11 09:45:41
sc1200wdt.c 11405 2023-08-11 09:45:41
sc520_wdt.c 11092 2023-08-11 09:45:41
sch311x_wdt.c 13809 2023-08-11 09:45:41
scx200_wdt.c 6599 2023-08-11 09:45:41
shwdt.c 9311 2023-08-11 09:45:41
sirfsoc_wdt.c 5795 2023-08-11 09:45:41
smsc37b787_wdt.c 15474 2023-08-11 09:45:41
softdog.c 4654 2023-08-11 09:45:41
sp5100_tco.c 12816 2023-08-11 09:45:41
sp5100_tco.h 2307 2021-08-29 15:04:50 -0700
sp805_wdt.c 9027 2023-08-11 09:45:41
sprd_wdt.c 9782 2023-08-11 09:45:41
st_lpc_wdt.c 7256 2023-08-11 09:45:41
stm32_iwdg.c 7270 2023-08-11 09:45:41
stmp3xxx_rtc_wdt.c 3967 2023-08-11 09:45:41
sun4v_wdt.c 4600 2023-08-11 09:45:41
sunxi_wdt.c 7925 2023-08-11 09:45:41
tangox_wdt.c 5036 2023-08-11 09:45:41
tegra_wdt.c 7457 2023-08-11 09:45:41
ts4800_wdt.c 5352 2023-08-11 09:45:41
ts72xx_wdt.c 4415 2023-08-11 09:45:41
twl4030_wdt.c 3873 2023-08-11 09:45:41
txx9wdt.c 4683 2023-08-11 09:45:41
uniphier_wdt.c 6471 2023-08-11 09:45:41
ux500_wdt.c 4104 2023-08-11 09:45:41
via_wdt.c 7646 2023-08-11 09:45:41
w83627hf_wdt.c 11004 2023-08-11 09:45:41
w83877f_wdt.c 10183 2023-08-11 09:45:41
w83977f_wdt.c 12101 2023-08-11 09:45:41
wafer5823wdt.c 7264 2023-08-11 09:45:41
watchdog_core.c 11465 2023-08-11 09:45:41
watchdog_core.h 1330 2023-08-11 09:45:41
watchdog_dev.c 29247 2023-08-11 09:45:41
watchdog_pretimeout.c 4804 2023-08-11 09:45:41
watchdog_pretimeout.h 1684 2021-08-29 15:04:50 -0700
wd501p.h 1598 2023-08-11 09:45:41
wdat_wdt.c 12909 2023-08-11 09:45:41
wdrtas.c 15626 2023-08-11 09:45:41
wdt.c 15849 2023-08-11 09:45:41
wdt285.c 4856 2023-08-11 09:45:41
wdt977.c 12079 2023-08-11 09:45:41
wdt_pci.c 17676 2023-08-11 09:45:41
wm831x_wdt.c 7113 2023-08-11 09:45:41
wm8350_wdt.c 4098 2021-08-29 15:04:50 -0700
xen_wdt.c 4929 2023-08-11 09:45:41
ziirave_wdt.c 19780 2023-08-11 09:45:41
zx2967_wdt.c 7184 2023-08-11 09:45:41